When you browse on this site, cookies collect data to enhance your experience and personalize the content and advertising you see.
Visit our Privacy Policy to learn more. By continuing to use the site, you agree to this use of cookies and data.

Tiempo cada hora Freire

Hoy, 6 Julio, Lunes

Tiempo Temperatura Precipitaciones Viento Presión Humedad
00:00 +3°C° 0 mm 1 mps 758 mmHg 95%
01:00 +3°C° 0 mm 1 mps 758 mmHg 95%
02:00 +2°C° 0 mm 1 mps 757 mmHg 94%
03:00 +2°C° 0 mm 1 mps 757 mmHg 94%
04:00 +2°C° 0 mm 1 mps 756 mmHg 94%
05:00 +1°C° 0 mm 1 mps 756 mmHg 93%
06:00 +1°C° 0 mm 1 mps 756 mmHg 92%
07:00 +1°C° 0 mm 1 mps 756 mmHg 92%
08:00 +2°C° 0 mm 1 mps 756 mmHg 86%
09:00 +4°C° 0 mm 1 mps 756 mmHg 81%
10:00 +6°C° 0 mm 1 mps 755 mmHg 76%
11:00 +7°C° 0 mm 1 mps 755 mmHg 71%
12:00 +9°C° 0 mm 1 mps 754 mmHg 65%
13:00 +10°C° 0 mm 1 mps 754 mmHg 60%
14:00 +9°C° 0 mm 1 mps 754 mmHg 65%
15:00 +7°C° 0 mm 0 mps 754 mmHg 71%
16:00 +7°C° 0 mm 0 mps 753 mmHg 77%
17:00 +5°C° 0 mm 0 mps 754 mmHg 81%
18:00 +4°C° 0 mm 0 mps 754 mmHg 85%
19:00 +3°C° 0 mm 0 mps 755 mmHg 90%
20:00 +2°C° 0 mm 0 mps 755 mmHg 90%
21:00 +3°C° 0 mm 1 mps 755 mmHg 91%
22:00 +3°C° 0 mm 1 mps 755 mmHg 92%
23:00 +3°C° 0 mm 1 mps 755 mmHg 91%

Mañana, 7 Julio, Martes

Tiempo Temperatura Precipitaciones Viento Presión Humedad
00:00 +3°C° 0 mm 1 mps 755 mmHg 90%
01:00 +3°C° 0 mm 1 mps 755 mmHg 89%
02:00 +2°C° 0 mm 1 mps 755 mmHg 88%
03:00 +2°C° 0 mm 1 mps 755 mmHg 87%
04:00 +2°C° 0 mm 1 mps 755 mmHg 86%
05:00 +3°C° 0 mm 1 mps 755 mmHg 85%
06:00 +3°C° 0 mm 1 mps 755 mmHg 84%
07:00 +3°C° 0 mm 1 mps 755 mmHg 84%
08:00 +5°C° 0 mm 1 mps 755 mmHg 81%
09:00 +6°C° 0 mm 1 mps 755 mmHg 79%
10:00 +6°C° 0 mm 2 mps 755 mmHg 77%
11:00 +6°C° 0.2 mm 2 mps 754 mmHg 79%
12:00 +7°C° 0.2 mm 2 mps 754 mmHg 81%
13:00 +7°C° 0.2 mm 3 mps 754 mmHg 83%
14:00 +7°C° 0.4 mm 3 mps 753 mmHg 85%
15:00 +7°C° 0.4 mm 3 mps 753 mmHg 87%
16:00 +5°C° 0.4 mm 3 mps 752 mmHg 88%
17:00 +7°C° 1 mm 3 mps 752 mmHg 90%
18:00 +6°C° 1 mm 4 mps 752 mmHg 91%
19:00 +6°C° 1 mm 4 mps 752 mmHg 92%
20:00 +7°C° 4.1 mm 3 mps 752 mmHg 94%
21:00 +7°C° 4.1 mm 2 mps 753 mmHg 96%
22:00 +7°C° 4.1 mm 1 mps 753 mmHg 97%
23:00 +7°C° 0.3 mm 1 mps 753 mmHg 96%

Pasado mañana, 8 Julio, Miércoles

Tiempo Temperatura Precipitaciones Viento Presión Humedad
00:00 +6°C° 0.3 mm 1 mps 754 mmHg 95%
01:00 +6°C° 0.3 mm 1 mps 754 mmHg 94%
02:00 +5°C° 0.1 mm 1 mps 755 mmHg 95%
03:00 +5°C° 0.1 mm 1 mps 755 mmHg 95%
04:00 +4°C° 0.1 mm 1 mps 756 mmHg 95%
05:00 +4°C° 0.1 mm 1 mps 756 mmHg 96%
06:00 +4°C° 0.1 mm 1 mps 757 mmHg 96%
07:00 +3°C° 0.1 mm 1 mps 757 mmHg 96%
08:00 +5°C° 0 mm 1 mps 757 mmHg 94%
09:00 +6°C° 0 mm 1 mps 758 mmHg 93%
10:00 +8°C° 0 mm 1 mps 758 mmHg 91%
11:00 +8°C° 0.4 mm 1 mps 758 mmHg 88%
12:00 +8°C° 0.4 mm 2 mps 758 mmHg 85%
13:00 +9°C° 0.4 mm 2 mps 758 mmHg 83%
14:00 +8°C° 0.4 mm 2 mps 757 mmHg 85%
15:00 +9°C° 0.4 mm 1 mps 757 mmHg 88%
16:00 +8°C° 0.4 mm 1 mps 757 mmHg 90%
17:00 +8°C° 0.2 mm 1 mps 757 mmHg 92%
18:00 +7°C° 0.2 mm 1 mps 757 mmHg 93%
19:00 +7°C° 0.2 mm 1 mps 758 mmHg 95%
20:00 +6°C° 0.1 mm 1 mps 757 mmHg 95%
21:00 +6°C° 0.1 mm 1 mps 757 mmHg 95%
22:00 +6°C° 0.1 mm 1 mps 757 mmHg 95%
23:00 +5°C° 0.1 mm 2 mps 756 mmHg 95%

9 Julio, Jueves

Tiempo Temperatura Precipitaciones Viento Presión Humedad
00:00 +5°C° 0.1 mm 2 mps 756 mmHg 94%
01:00 +5°C° 0.1 mm 2 mps 756 mmHg 93%
02:00 +4°C° 0.8 mm 3 mps 755 mmHg 93%
03:00 +4°C° 0.8 mm 3 mps 754 mmHg 92%
04:00 +4°C° 0.8 mm 4 mps 754 mmHg 91%
05:00 +5°C° 1.3 mm 4 mps 753 mmHg 91%
06:00 +5°C° 1.3 mm 5 mps 752 mmHg 92%
07:00 +5°C° 1.3 mm 5 mps 752 mmHg 92%
08:00 +5°C° 2.9 mm 5 mps 752 mmHg 93%
09:00 +6°C° 2.9 mm 5 mps 751 mmHg 94%
10:00 +6°C° 2.9 mm 5 mps 751 mmHg 94%
11:00 +7°C° 2.5 mm 5 mps 751 mmHg 95%
12:00 +7°C° 2.5 mm 4 mps 751 mmHg 95%
13:00 +7°C° 2.5 mm 4 mps 751 mmHg 96%
14:00 +8°C° 1.5 mm 3 mps 751 mmHg 96%
15:00 +8°C° 1.5 mm 2 mps 752 mmHg 97%
16:00 +9°C° 1.5 mm 2 mps 752 mmHg 98%
17:00 +9°C° 1.3 mm 2 mps 752 mmHg 98%
18:00 +9°C° 1.3 mm 2 mps 752 mmHg 98%
19:00 +8°C° 1.3 mm 2 mps 753 mmHg 98%
20:00 +8°C° 1 mm 2 mps 752 mmHg 98%
21:00 +8°C° 1 mm 2 mps 752 mmHg 98%
22:00 +8°C° 1 mm 2 mps 752 mmHg 98%
23:00 +9°C° 1.2 mm 2 mps 752 mmHg 98%

10 Julio, Viernes

Tiempo Temperatura Precipitaciones Viento Presión Humedad
00:00 +9°C° 1.2 mm 2 mps 751 mmHg 98%
01:00 +10°C° 1.2 mm 3 mps 751 mmHg 97%
02:00 +10°C° 2.1 mm 3 mps 751 mmHg 97%
03:00 +11°C° 2.1 mm 3 mps 751 mmHg 97%
04:00 +11°C° 2.1 mm 3 mps 750 mmHg 97%
05:00 +11°C° 2.5 mm 3 mps 750 mmHg 97%
06:00 +11°C° 2.5 mm 3 mps 751 mmHg 97%
07:00 +11°C° 2.5 mm 3 mps 751 mmHg 97%
08:00 +12°C° 1.6 mm 2 mps 751 mmHg 97%
09:00 +12°C° 1.6 mm 2 mps 751 mmHg 97%
10:00 +12°C° 1.6 mm 2 mps 752 mmHg 97%
11:00 +13°C° 0.5 mm 2 mps 752 mmHg 95%
12:00 +12°C° 0.5 mm 3 mps 751 mmHg 94%
13:00 +12°C° 0.5 mm 3 mps 751 mmHg 92%
14:00 +12°C° 0.3 mm 3 mps 752 mmHg 92%
15:00 +11°C° 0.3 mm 3 mps 752 mmHg 93%
16:00 +12°C° 0.3 mm 2 mps 752 mmHg 93%
17:00 +12°C° 0.2 mm 2 mps 752 mmHg 94%
18:00 +10°C° 0.2 mm 2 mps 753 mmHg 96%
19:00 +11°C° 0.2 mm 1 mps 753 mmHg 97%
20:00 +11°C° 1 mm 1 mps 753 mmHg 97%
21:00 +11°C° 1 mm 1 mps 753 mmHg 98%
22:00 +11°C° 1 mm 1 mps 753 mmHg 99%
23:00 +11°C° 1.7 mm 1 mps 753 mmHg 99%

11 Julio, Sábado

Tiempo Temperatura Precipitaciones Viento Presión Humedad
00:00 +11°C° 1.7 mm 1 mps 752 mmHg 98%
01:00 +11°C° 1.7 mm 1 mps 752 mmHg 98%
02:00 +11°C° 2.2 mm 1 mps 752 mmHg 98%
03:00 +11°C° 2.2 mm 1 mps 751 mmHg 99%
04:00 +11°C° 2.2 mm 1 mps 751 mmHg 99%
05:00 +12°C° 2.6 mm 1 mps 751 mmHg 98%
06:00 +12°C° 2.6 mm 1 mps 751 mmHg 98%
07:00 +12°C° 2.6 mm 1 mps 751 mmHg 98%
08:00 +12°C° 1.4 mm 1 mps 752 mmHg 98%
09:00 +11°C° 1.4 mm 1 mps 752 mmHg 98%
10:00 +11°C° 1.4 mm 1 mps 752 mmHg 99%
11:00 +10°C° 1.8 mm 0 mps 752 mmHg 98%
12:00 +10°C° 1.8 mm 0 mps 752 mmHg 98%
13:00 +10°C° 1.8 mm 0 mps 751 mmHg 98%
14:00 +10°C° 1.9 mm 0 mps 752 mmHg 98%
15:00 +9°C° 1.9 mm 0 mps 752 mmHg 99%
16:00 +9°C° 1.9 mm 0 mps 752 mmHg 99%
17:00 +9°C° 0.8 mm 0 mps 752 mmHg 99%
18:00 +9°C° 0.8 mm 0 mps 752 mmHg 98%
19:00 +9°C° 0.8 mm 0 mps 753 mmHg 98%
20:00 +9°C° 0 mm 0 mps 753 mmHg 98%
21:00 +9°C° 0 mm 0 mps 753 mmHg 98%
22:00 +9°C° 0 mm 0 mps 753 mmHg 98%
23:00 +10°C° 0 mm 0 mps 753 mmHg 98%
Mostrar más